This is the latest recevied weather packets stored in our database for station/object W6JCZ-13. If no packets are shown the sender has not sent any weather packets the latest 10 day(s).
| Time | Temp. | Humidity | Pressure | Rain* | Wind** | Luminosity | Snow |
|---|---|---|---|---|---|---|---|
| 1777734316 | 13.33° C | 82% | 1009.8 hPa | 0 mm | - | - | - |
| 1777733716 | 13.33° C | 82% | 1009.7 hPa | 0 mm | - | - | - |
| 1777733116 | 12.78° C | 83% | 1009.6 hPa | 0 mm | - | - | - |
| 1777732516 | 12.78° C | 83% | 1009.3 hPa | 0 mm | - | - | - |
| 1777731916 | 12.22° C | 85% | 1009.2 hPa | 0 mm | - | - | - |
| 1777731316 | 12.22° C | 85% | 1009.3 hPa | 0 mm | - | - | - |
| 1777730716 | 12.22° C | 86% | 1009.3 hPa | 0 mm | - | - | - |
| 1777730116 | 11.67° C | 86% | 1009.1 hPa | 0 mm | - | - | - |
| 1777729515 | 11.67° C | 86% | 1008.7 hPa | 0 mm | - | - | - |
| 1777728916 | 11.67° C | 86% | 1008.7 hPa | 0 mm | - | - | - |
| 1777728316 | 11.67° C | 86% | 1008.6 hPa | 0 mm | - | - | - |
| 1777727116 | 11.67° C | 86% | 1008.5 hPa | 0 mm | - | - | - |
| 1777726516 | 11.11° C | 86% | 1008.4 hPa | 0 mm | - | - | - |
| 1777725916 | 11.11° C | 86% | 1008.3 hPa | 0 mm | - | - | - |
| 1777725316 | 11.67° C | 86% | 1008.3 hPa | 0 mm | - | - | - |
| 1777724716 | 11.11° C | 86% | 1008.3 hPa | 0 mm | - | - | - |
| 1777724116 | 11.67° C | 86% | 1008.2 hPa | 0 mm | - | - | - |
| 1777723516 | 11.67° C | 86% | 1008.2 hPa | 0 mm | - | - | - |
| 1777722916 | 11.67° C | 86% | 1008.2 hPa | 0 mm | - | - | - |
| 1777722316 | 11.67° C | 86% | 1008.2 hPa | 0 mm | - | - | - |
| 1777721716 | 11.67° C | 86% | 1008.3 hPa | 0 mm | - | - | - |
| 1777721116 | 11.67° C | 86% | 1008.2 hPa | 0 mm | - | - | - |
| 1777720517 | 11.67° C | 85% | 1008.3 hPa | 0 mm | - | - | - |
| 1777719918 | 12.22° C | 85% | 1008.3 hPa | 0 mm | - | - | - |
| 1777719318 | 12.22° C | 85% | 1008.3 hPa | 0 mm | - | - | - |
* Rain latest hour (hover to see other rain measurements)
** Current wind speed in m/s (hover to see current wind gust speed)